Powrót do katalogu

OPS 6392

FLTSATCOM 2

AktywnyMilitariaGEO
NORAD 11353·PAYLOAD·🇺🇸 United States

Wystrzelony May 4, 1979 z Cape Canaveral Space Force Station

Loading…

TLE

ŚwieżeSource: Space-Track

Epoka: Sep 14, 2026, 11:54 UTC

1 11353U 79038A   26257.49588706  .00000006  00000-0  00000-0 0  9995
2 11353   7.5308 302.0108 0013755  86.5836  38.9601  0.98542366171266

Śledź OPS 6392 w czasie rzeczywistym z AllMySat

Download on the App Store